period_start,C,m1,H,J0,J1,J2,J3,J4,J5,JA,JB,JC,JD,JJ,JK,JN,#
2016-10-30 00:00:10,0.03,0.55,0.00,14.50,19.94,23.68,15.12,50.09,1015.14,2061.89,3346.13,3026.06,3411.07,600.09,612.78,17.38,0000 0000 0000 0000 000000
2016-10-30 00:05:12,0.01,0.55,0.00,14.51,19.94,23.68,15.08,50.04,1015.12,2061.94,3345.95,3026.00,3410.97,599.87,612.53,17.43,0000 0000 0000 0000 000000
2016-10-30 00:10:13,0.04,0.55,0.00,14.47,19.92,23.68,15.10,50.04,1014.96,2061.96,3345.15,3025.63,3410.26,599.91,612.61,17.48,0000 0000 0000 0000 000000
2016-10-30 00:15:14,0.01,0.55,0.00,14.46,19.92,23.68,15.05,49.88,1014.94,2061.98,3344.86,3025.05,3409.99,599.99,612.75,17.53,0000 0000 0000 0000 000000
2016-10-30 00:20:16,0.02,0.55,0.00,14.49,19.92,23.67,15.07,50.05,1014.96,2061.98,3344.09,3024.99,3409.37,599.75,612.38,17.58,0000 0000 0000 0000 000000
2016-10-30 00:25:17,0.01,0.55,0.00,14.49,19.91,23.69,15.07,49.77,1015.00,2061.98,3343.99,3024.74,3409.01,599.84,612.53,17.63,0000 0000 0000 0000 000000
2016-10-30 00:30:18,0.02,0.55,0.00,14.46,19.89,23.66,15.05,49.88,1014.78,2061.99,3343.56,3024.29,3408.97,599.93,612.46,17.68,0000 0000 0000 0000 000000
2016-10-30 00:35:20,0.02,0.55,0.00,14.48,19.89,23.65,15.12,50.26,1014.67,2061.99,3343.01,3024.00,3408.34,600.16,612.72,17.73,0000 0000 0000 0000 000000
2016-10-30 00:40:21,0.00,0.55,0.00,14.46,19.89,23.65,15.10,50.26,1014.66,2061.99,3342.75,3023.95,3408.00,600.56,613.18,17.78,0000 0000 0000 0000 000000
2016-10-30 00:45:22,0.03,0.56,0.00,14.45,19.89,23.64,15.11,50.41,1014.66,2061.99,3342.05,3023.23,3407.66,599.81,612.44,17.83,0000 0000 0000 0000 000000
2016-10-30 00:50:23,0.02,0.56,0.00,14.49,19.88,23.65,15.04,50.26,1014.64,2061.99,3341.52,3023.00,3407.03,599.98,612.43,17.88,0000 0000 0000 0000 000000
2016-10-30 00:55:24,0.01,0.56,0.00,14.47,19.87,23.63,15.04,49.99,1014.62,2061.99,3341.01,3022.80,3406.89,599.56,612.03,17.93,0000 0000 0000 0000 000000
2016-10-30 01:00:26,0.04,0.56,0.00,14.49,19.87,23.61,15.08,50.09,1014.51,2061.99,3340.47,3022.08,3406.07,600.14,612.49,17.98,0000 0000 0000 0000 000000
2016-10-30 01:05:27,0.00,0.56,0.00,14.49,19.87,23.62,15.06,49.58,1014.57,2062.00,3339.98,3021.98,3405.91,599.50,611.92,18.03,0000 0000 0000 0000 000000
2016-10-30 01:10:28,0.05,0.56,0.00,14.48,19.87,23.63,15.12,49.99,1014.53,2062.00,3339.21,3021.37,3405.14,599.98,612.40,18.08,0000 0000 0000 0000 000000
2016-10-30 01:15:30,0.00,0.56,0.00,14.43,19.87,23.59,15.09,49.72,1014.55,2062.00,3339.00,3021.01,3404.98,600.02,612.64,18.13,0000 0000 0000 0000 000000
2016-10-30 01:20:31,0.02,0.56,0.00,14.45,19.86,23.57,15.00,49.86,1014.52,2062.00,3338.61,3020.94,3404.44,599.77,612.26,18.18,0000 0000 0000 0000 000000
2016-10-30 01:25:32,0.03,0.57,0.00,14.50,19.85,23.59,14.99,49.69,1014.61,2062.00,3338.01,3020.17,3403.98,599.94,612.56,18.23,0000 0000 0000 0000 000000
2016-10-30 01:30:33,0.02,0.57,0.00,14.46,19.84,23.60,15.10,50.31,1014.64,2062.01,3337.53,3020.00,3403.48,599.98,612.62,18.28,0000 0000 0000 0000 000000
2016-10-30 01:35:35,0.02,0.57,0.00,14.47,19.84,23.60,14.99,49.98,1014.66,2062.02,3337.01,3019.62,3403.00,599.47,612.07,18.33,0000 0000 0000 0000 000000
2016-10-30 01:40:36,0.04,0.57,0.00,14.47,19.84,23.62,15.01,50.19,1014.66,2062.02,3336.34,3019.02,3402.39,600.06,612.58,18.38,0000 0000 0000 0000 000000
2016-10-30 01:45:37,0.02,0.57,0.00,14.41,19.84,23.60,15.13,50.28,1014.66,2062.01,3335.91,3018.65,3401.93,600.26,612.91,18.43,0000 0000 0000 0000 000000
2016-10-30 01:50:38,0.04,0.57,0.00,14.45,19.84,23.63,15.02,50.07,1014.66,2062.02,3335.10,3018.04,3401.15,599.71,612.52,18.48,0000 0000 0000 0000 000000
2016-10-30 01:55:40,0.00,0.57,0.00,14.50,19.84,23.57,15.05,49.83,1014.65,2062.01,3334.96,3017.97,3400.98,600.02,612.52,18.53,0000 0000 0000 0000 000000
2016-10-30 02:00:41,0.04,0.58,0.00,14.49,19.83,23.59,15.07,49.80,1014.64,2062.01,3334.30,3017.37,3400.43,600.57,612.88,18.58,0000 0000 0000 0000 000000
2016-10-30 02:05:42,0.01,0.58,0.00,14.46,19.82,23.58,15.02,49.83,1014.65,2062.02,3333.96,3017.01,3400.01,600.05,612.52,18.63,0000 0000 0000 0000 000000
2016-10-30 02:10:44,0.03,0.58,0.00,14.45,19.82,23.56,15.05,49.98,1014.65,2062.02,3333.22,3016.78,3399.51,599.91,612.47,18.68,0000 0000 0000 0000 000000
2016-10-30 02:15:45,0.01,0.58,0.00,14.47,19.82,23.61,15.17,50.07,1014.64,2062.01,3332.92,3016.06,3399.00,600.44,613.07,18.73,0000 0000 0000 0000 000000
2016-10-30 02:20:46,0.02,0.58,0.00,14.45,19.82,23.57,15.04,49.78,1014.63,2062.02,3332.12,3015.98,3398.35,599.62,612.12,18.78,0000 0000 0000 0000 000000
2016-10-30 02:25:47,0.02,0.58,0.00,14.46,19.82,23.57,15.00,49.52,1014.65,2062.04,3331.98,3015.63,3398.01,599.79,612.19,18.83,0000 0000 0000 0000 000000
2016-10-30 02:30:48,0.03,0.58,0.00,14.46,19.82,23.57,15.17,49.92,1014.66,2062.13,3331.50,3015.07,3397.95,600.44,613.00,18.88,0000 0000 0000 0000 000000
2016-10-30 02:35:50,0.02,0.59,0.00,14.46,19.82,23.57,15.01,49.88,1014.61,2062.17,3330.96,3014.82,3397.24,600.26,612.90,18.93,0000 0000 0000 0000 000000
2016-10-30 02:40:51,0.04,0.59,0.00,14.46,19.82,23.59,14.95,49.40,1014.38,2062.12,3330.16,3014.07,3396.37,599.56,612.04,18.98,0000 0000 0000 0000 000000
2016-10-30 02:45:52,0.01,0.59,0.00,14.46,19.82,23.55,15.11,50.38,1014.42,2062.14,3329.85,3013.82,3395.91,600.83,613.25,19.03,0000 0000 0000 0000 000000
2016-10-30 02:50:53,0.04,0.59,0.00,14.48,19.82,23.53,15.07,50.08,1014.33,2062.15,3329.09,3013.08,3395.15,600.23,612.53,19.08,0000 0000 0000 0000 000000
2016-10-30 02:55:54,0.03,0.59,0.00,14.52,19.82,23.54,15.11,49.97,1014.29,2062.20,3328.68,3012.95,3394.90,599.79,611.98,19.13,0000 0000 0000 0000 000000
2016-10-30 03:00:55,0.07,0.60,0.00,14.48,19.82,23.56,15.10,49.88,1014.43,2062.49,3328.03,3012.20,3394.13,600.11,612.40,19.18,0000 0000 0000 0000 000000
2016-10-30 03:05:57,0.03,0.60,0.00,14.51,19.82,23.57,15.05,49.98,1014.64,2062.65,3327.51,3011.97,3393.72,599.80,612.20,19.24,0000 0000 0000 0000 000000
2016-10-30 03:10:58,0.05,0.60,0.00,14.53,19.82,23.58,15.07,50.13,1014.65,2062.84,3327.01,3011.41,3393.04,600.42,612.84,19.29,0000 0000 0000 0000 000000
2016-10-30 03:15:59,0.00,0.60,0.00,14.51,19.82,23.55,15.10,50.43,1014.60,2062.68,3326.46,3011.00,3392.61,599.82,612.20,19.34,0000 0000 0000 0000 000000
2016-10-30 03:21:01,0.03,0.60,0.00,14.49,19.82,23.58,14.99,49.82,1014.39,2062.78,3326.01,3010.74,3392.04,599.86,612.36,19.39,0000 0000 0000 0000 000000
2016-10-30 03:26:02,0.02,0.60,0.00,14.49,19.82,23.57,14.98,50.02,1014.19,2062.70,3325.63,3010.05,3391.73,599.64,611.83,19.44,0000 0000 0000 0000 000000
2016-10-30 03:31:03,0.03,0.60,0.00,14.50,19.82,23.55,15.08,50.40,1014.20,2062.68,3324.98,3009.79,3391.06,600.40,612.59,19.49,0000 0000 0000 0000 000000
2016-10-30 03:36:05,0.02,0.61,0.00,14.47,19.82,23.55,15.08,50.12,1014.20,2062.33,3324.17,3009.02,3390.44,600.21,612.52,19.54,0000 0000 0000 0000 000000
2016-10-30 03:41:06,0.03,0.61,0.00,14.48,19.82,23.57,15.04,50.12,1014.18,2062.56,3323.98,3008.79,3390.01,600.18,612.50,19.59,0000 0000 0000 0000 000000
2016-10-30 03:46:07,0.05,0.61,0.00,14.52,19.82,23.53,15.03,49.61,1014.17,2062.70,3323.38,3008.10,3389.72,599.55,611.67,19.64,0000 0000 0000 0000 000000
2016-10-30 03:51:09,0.01,0.61,0.00,14.49,19.82,23.56,15.06,49.88,1014.18,2062.73,3322.99,3008.00,3389.06,600.38,612.55,19.69,0000 0000 0000 0000 000000
2016-10-30 03:56:10,0.01,0.61,0.00,14.45,19.82,23.56,15.11,50.18,1014.18,2062.47,3322.24,3007.54,3388.54,600.56,612.65,19.74,0000 0000 0000 0000 000000
2016-10-30 04:01:11,0.04,0.61,0.00,14.47,19.82,23.56,15.00,50.09,1014.18,2062.47,3321.99,3007.02,3388.02,599.92,612.21,19.79,0000 0000 0000 0000 000000
2016-10-30 04:06:12,-0.01,0.61,0.00,14.46,19.82,23.58,15.09,50.35,1014.17,2062.45,3321.35,3006.98,3387.88,600.11,612.36,19.84,0000 0000 0000 0000 000000
2016-10-30 04:11:13,0.04,0.61,0.00,14.43,19.82,23.58,15.11,50.32,1014.16,2062.42,3321.00,3006.61,3387.13,600.18,612.50,19.89,0000 0000 0000 0000 000000
2016-10-30 04:16:14,0.03,0.62,0.00,14.44,19.82,23.59,15.17,50.33,1014.15,2062.57,3320.58,3006.07,3387.00,600.16,612.45,19.94,0000 0000 0000 0000 000000
2016-10-30 04:21:15,0.02,0.62,0.00,14.46,19.82,23.59,15.08,50.45,1014.05,2062.64,3320.04,3006.00,3386.73,599.94,612.06,19.99,0000 0000 0000 0000 000000
2016-10-30 04:26:16,0.03,0.62,0.00,14.45,19.81,23.58,15.03,50.26,1014.14,2062.63,3319.68,3005.69,3386.05,599.96,612.29,20.04,0000 0000 0000 0000 000000
2016-10-30 04:31:17,0.03,0.62,0.00,14.44,19.81,23.56,15.09,50.46,1014.05,2062.69,3319.03,3005.04,3385.81,599.97,612.19,20.09,0000 0000 0000 0000 000000
2016-10-30 04:36:19,0.03,0.62,0.00,14.42,19.80,23.57,15.02,50.33,1014.11,2062.80,3318.72,3004.99,3385.09,599.97,612.24,20.14,0000 0000 0000 0000 000000
2016-10-30 04:41:20,0.01,0.62,0.00,14.44,19.80,23.57,15.13,50.26,1014.16,2062.73,3318.05,3004.62,3384.97,599.75,612.03,20.19,0000 0000 0000 0000 000000
2016-10-30 04:46:21,0.03,0.62,0.00,14.41,19.80,23.58,15.01,50.24,1014.15,2062.71,3317.96,3004.05,3384.41,599.86,612.27,20.24,0000 0000 0000 0000 000000
2016-10-30 04:51:22,0.02,0.63,0.00,14.41,19.79,23.57,15.09,50.45,1014.16,2062.89,3317.24,3004.00,3384.02,600.03,612.40,20.29,0000 0000 0000 0000 000000
2016-10-30 04:56:24,-0.01,0.63,0.00,14.35,19.79,23.57,15.09,50.27,1014.17,2062.68,3317.00,3003.88,3383.95,600.09,612.58,20.34,0000 0000 0000 0000 000000
2016-10-30 05:01:25,0.05,0.63,0.00,14.38,19.79,23.52,15.09,50.23,1014.16,2062.77,3316.43,3003.17,3383.22,599.94,612.48,20.39,0000 0000 0000 0000 000000
2016-10-30 05:06:26,0.00,0.63,0.00,14.37,19.79,23.53,14.99,49.97,1014.17,2062.82,3316.01,3003.01,3383.01,599.72,612.19,20.44,0000 0000 0000 0000 000000
2016-10-30 05:11:28,0.01,0.63,0.00,14.37,19.79,23.52,15.09,50.23,1014.17,2062.76,3315.76,3002.95,3382.61,600.26,612.70,20.49,0000 0000 0000 0000 000000
2016-10-30 05:16:29,0.05,0.63,0.00,14.38,19.79,23.52,15.09,50.23,1014.17,2062.84,3315.15,3002.52,3382.09,600.22,612.65,20.54,0000 0000 0000 0000 000000
2016-10-30 05:21:30,0.01,0.63,0.00,14.35,19.79,23.52,15.08,50.26,1014.17,2062.82,3314.93,3002.03,3381.94,600.16,612.74,20.59,0000 0000 0000 0000 000000
2016-10-30 05:26:32,0.02,0.63,0.00,14.34,19.79,23.56,15.07,50.38,1014.17,2062.73,3314.18,3001.84,3381.14,599.70,612.10,20.64,0000 0000 0000 0000 000000
2016-10-30 05:31:33,0.02,0.63,0.00,14.30,19.78,23.52,15.10,50.25,1014.16,2062.76,3313.99,3001.27,3381.00,600.07,612.67,20.69,0000 0000 0000 0000 000000
2016-10-30 05:36:34,0.02,0.64,0.00,14.31,19.77,23.50,15.11,50.31,1014.15,2062.83,3313.67,3001.00,3380.91,600.26,612.83,20.74,0000 0000 0000 0000 000000
2016-10-30 05:41:35,0.02,0.64,0.00,14.34,19.77,23.52,15.04,50.35,1014.14,2062.92,3313.05,3001.00,3380.24,599.99,612.39,20.79,0000 0000 0000 0000 000000
2016-10-30 05:46:36,0.01,0.64,0.00,14.33,19.77,23.53,15.21,50.63,1014.17,2062.93,3312.95,3000.76,3380.01,600.37,613.04,20.84,0000 0000 0000 0000 000000
2016-10-30 05:51:38,0.03,0.64,0.00,14.34,19.77,23.51,15.07,50.42,1014.15,2062.88,3312.20,3000.07,3379.81,599.96,612.46,20.89,0000 0000 0000 0000 000000
2016-10-30 05:56:39,0.01,0.64,0.00,14.34,19.77,23.51,15.09,50.23,1014.17,2062.93,3311.99,3000.00,3379.11,599.92,612.40,20.94,0000 0000 0000 0000 000000
2016-10-30 06:01:40,0.03,0.64,0.00,14.37,19.76,23.48,15.12,50.36,1014.17,2062.92,3311.33,2999.76,3378.89,600.28,612.60,20.99,0000 0000 0000 0000 000000
2016-10-30 06:06:42,0.02,0.64,0.00,14.31,19.75,23.49,15.13,50.25,1014.17,2062.92,3310.97,2999.06,3378.16,600.46,613.03,21.04,0000 0000 0000 0000 000000
2016-10-30 06:11:43,0.02,0.64,0.00,14.30,19.74,23.50,15.06,50.11,1014.17,2062.92,3310.39,2998.99,3378.00,600.02,612.55,21.09,0000 0000 0000 0000 000000
2016-10-30 06:16:44,0.01,0.64,0.00,14.28,19.74,23.48,15.02,50.14,1014.17,2062.94,3310.01,2998.82,3377.78,599.56,612.11,21.14,0000 0000 0000 0000 000000
2016-10-30 06:21:45,0.03,0.65,0.00,14.29,19.74,23.48,15.10,50.43,1014.17,2062.94,3309.68,2998.09,3377.05,599.82,612.40,21.19,0000 0000 0000 0000 000000
2016-10-30 06:26:47,0.01,0.65,0.00,14.30,19.74,23.50,15.09,50.36,1014.17,2062.95,3309.05,2998.00,3376.95,600.04,612.56,21.24,0000 0000 0000 0000 000000
2016-10-30 06:31:48,0.03,0.65,0.00,14.33,19.74,23.47,15.08,50.24,1014.14,2062.97,3308.79,2997.72,3376.27,600.00,612.52,21.29,0000 0000 0000 0000 000000
2016-10-30 06:36:49,0.02,0.65,0.00,14.32,19.74,23.48,15.05,50.17,1014.16,2062.97,3308.07,2997.06,3375.92,599.76,612.37,21.34,0000 0000 0000 0000 000000
2016-10-30 06:41:51,0.03,0.65,0.00,14.34,19.73,23.46,15.04,50.32,1014.17,2062.97,3307.62,2996.77,3375.09,599.65,612.12,21.39,0000 0000 0000 0000 000000
2016-10-30 06:46:52,0.04,0.65,0.00,14.32,19.73,23.48,15.13,50.42,1014.17,2062.97,3306.79,2995.95,3374.33,600.03,612.69,21.44,0000 0000 0000 0000 000000
2016-10-30 06:51:54,0.04,0.66,0.00,14.27,19.72,23.46,15.01,50.20,1014.17,2062.98,3306.05,2995.16,3373.71,599.88,612.50,21.49,0000 0000 0000 0000 000000
2016-10-30 06:56:55,0.01,0.66,0.00,14.29,19.72,23.46,15.10,50.27,1014.18,2062.97,3305.76,2994.98,3373.03,600.16,612.73,21.54,0000 0000 0000 0000 000000
2016-10-30 07:01:56,0.05,0.66,0.00,14.33,19.72,23.47,15.08,50.19,1014.18,2062.98,3305.04,2994.26,3372.56,600.17,612.75,21.59,0000 0000 0000 0000 000000
2016-10-30 07:06:57,0.01,0.66,0.00,14.37,19.72,23.48,15.03,50.07,1014.18,2062.99,3304.76,2994.01,3372.04,599.98,612.43,21.64,0000 0000 0000 0000 000000
2016-10-30 07:11:58,0.01,0.66,0.00,14.38,19.72,23.47,14.99,50.01,1014.12,2062.99,3304.04,2993.95,3371.95,599.84,612.23,21.69,0000 0000 0000 0000 000000
2016-10-30 07:17:00,0.04,0.66,0.00,14.37,19.72,23.42,15.07,50.10,1013.98,2062.99,3303.71,2993.17,3371.13,600.08,612.62,21.74,0000 0000 0000 0000 000000
2016-10-30 07:22:01,0.01,0.66,0.00,14.34,19.72,23.44,15.09,50.18,1013.86,2062.99,3303.05,2992.99,3370.83,599.98,612.20,21.79,0000 0000 0000 0000 000000
2016-10-30 07:27:03,0.03,0.66,0.00,14.39,19.72,23.47,15.03,50.09,1013.84,2062.99,3302.97,2992.58,3370.09,599.81,612.01,21.84,0000 0000 0000 0000 000000
2016-10-30 07:32:04,0.02,0.67,0.00,14.37,19.72,23.43,15.02,50.23,1013.97,2062.99,3302.23,2992.03,3369.97,599.76,612.07,21.89,0000 0000 0000 0000 000000
2016-10-30 07:37:05,0.01,0.67,0.00,14.37,19.72,23.45,15.03,49.99,1014.12,2062.98,3301.96,2991.98,3369.25,599.78,612.37,21.94,0000 0000 0000 0000 000000
2016-10-30 07:42:06,0.03,0.67,0.00,14.35,19.72,23.44,15.06,50.20,1014.16,2062.99,3301.29,2991.54,3369.00,600.00,612.29,21.99,0000 0000 0000 0000 000000
2016-10-30 07:47:07,0.02,0.67,0.00,14.36,19.72,23.46,15.10,50.06,1014.17,2062.99,3300.91,2991.01,3368.42,599.90,612.37,22.04,0000 0000 0000 0000 000000
2016-10-30 07:52:09,0.01,0.67,0.00,14.34,19.72,23.47,15.11,50.11,1014.17,2062.98,3300.18,2990.94,3368.01,600.28,612.79,22.09,0000 0000 0000 0000 000000
2016-10-30 07:57:10,0.03,0.67,0.00,14.37,19.72,23.47,15.12,50.01,1014.17,2062.99,3299.99,2990.19,3367.68,600.38,612.83,22.14,0000 0000 0000 0000 000000
2016-10-30 08:02:11,0.02,0.67,0.00,14.36,19.72,23.49,15.09,50.24,1014.17,2062.99,3299.40,2990.00,3367.05,600.20,612.71,22.19,0000 0000 0000 0000 000000
2016-10-30 08:07:13,0.01,0.67,0.00,14.39,19.72,23.46,15.09,50.11,1014.17,2062.99,3299.00,2989.69,3366.93,600.19,612.60,22.24,0000 0000 0000 0000 000000
2016-10-30 08:12:14,0.04,0.68,0.00,14.39,19.72,23.43,15.09,50.29,1014.15,2062.99,3298.52,2989.07,3366.18,599.97,612.36,22.29,0000 0000 0000 0000 000000
2016-10-30 08:17:15,0.01,0.68,0.00,14.41,19.72,23.46,15.11,50.42,1014.15,2062.99,3297.99,2988.86,3365.83,599.84,612.22,22.34,0000 0000 0000 0000 000000
2016-10-30 08:22:17,0.04,0.68,0.00,14.35,19.72,23.45,15.07,50.15,1014.13,2062.99,3297.41,2988.15,3365.09,599.77,612.32,22.39,0000 0000 0000 0000 000000
2016-10-30 08:27:18,0.00,0.68,0.00,14.36,19.72,23.48,15.00,50.29,1014.02,2062.99,3297.01,2987.99,3364.91,600.01,612.39,22.44,0000 0000 0000 0000 000000
2016-10-30 08:32:19,0.04,0.68,0.00,14.37,19.72,23.44,15.12,50.58,1013.83,2062.99,3296.53,2987.68,3364.13,600.15,612.39,22.49,0000 0000 0000 0000 000000
2016-10-30 08:37:21,0.01,0.68,0.00,14.34,19.72,23.46,15.15,50.45,1013.83,2062.99,3296.02,2987.03,3363.91,600.46,612.74,22.54,0000 0000 0000 0000 000000
2016-10-30 08:42:22,0.01,0.68,0.00,14.32,19.72,23.46,15.10,50.39,1013.94,2062.98,3295.89,2986.94,3363.18,600.27,612.61,22.59,0000 0000 0000 0000 000000
2016-10-30 08:47:24,0.03,0.69,0.00,14.34,19.72,23.50,15.08,50.38,1013.97,2062.99,3295.16,2986.30,3362.99,600.03,612.41,22.65,0000 0000 0000 0000 000000
2016-10-30 08:52:25,0.01,0.69,0.00,14.36,19.72,23.49,15.08,50.24,1014.07,2062.99,3294.99,2986.00,3362.69,599.86,612.28,22.70,0000 0000 0000 0000 000000
2016-10-30 08:57:26,0.01,0.69,0.00,14.38,19.72,23.45,15.11,50.42,1013.97,2062.99,3294.59,2985.99,3362.07,600.10,612.37,22.75,0000 0000 0000 0000 000000
2016-10-30 09:02:27,0.00,0.69,0.00,14.37,19.73,23.46,15.03,49.98,1014.05,2062.99,3294.07,2985.93,3362.00,599.61,612.00,22.80,0000 0000 0000 0000 000000
2016-10-30 09:07:29,0.02,0.69,0.00,14.39,19.73,23.46,15.02,50.08,1014.00,2062.99,3294.00,2985.41,3361.97,599.65,611.95,22.85,0000 0000 0000 0000 000000
2016-10-30 09:12:30,0.02,0.69,0.00,14.43,19.74,23.49,15.02,50.18,1013.91,2062.99,3293.74,2985.02,3361.39,599.98,612.16,22.90,0000 0000 0000 0000 000000
2016-10-30 09:17:31,0.01,0.69,0.00,14.44,19.74,23.47,15.07,50.33,1013.72,2062.99,3293.04,2984.98,3361.00,600.23,612.25,22.95,0000 0000 0000 0000 000000
2016-10-30 09:22:32,0.01,0.69,0.00,14.44,19.74,23.49,15.09,49.92,1013.73,2062.99,3292.98,2984.63,3360.89,599.91,612.03,23.00,0000 0000 0000 0000 000000
2016-10-30 09:27:34,0.03,0.69,0.00,14.44,19.74,23.49,15.10,50.16,1013.69,2062.98,3292.52,2984.05,3360.13,599.88,611.88,23.05,0000 0000 0000 0000 000000
2016-10-30 09:32:35,0.00,0.69,0.00,14.43,19.74,23.46,15.16,50.10,1013.71,2062.99,3292.02,2984.00,3360.00,600.55,612.59,23.10,0000 0000 0000 0000 000000
2016-10-30 09:37:37,0.00,0.69,0.00,14.43,19.74,23.45,15.08,50.27,1013.69,2062.99,3291.99,2983.99,3359.96,600.34,612.39,23.15,0000 0000 0000 0000 000000
2016-10-30 09:42:38,0.02,0.69,0.00,14.40,19.74,23.47,15.03,50.27,1013.71,2062.98,3291.67,2983.83,3359.43,599.47,611.49,23.20,0000 0000 0000 0000 000000
2016-10-30 09:47:39,0.02,0.70,0.00,14.38,19.74,23.46,15.09,50.44,1013.70,2062.99,3291.08,2983.26,3359.03,600.27,612.31,23.25,0000 0000 0000 0000 000000
2016-10-30 09:52:41,0.00,0.70,0.00,14.43,19.74,23.51,15.15,50.36,1013.69,2062.99,3290.94,2983.02,3358.97,600.18,612.25,23.30,0000 0000 0000 0000 000000
2016-10-30 09:57:42,0.02,0.70,0.00,14.42,19.74,23.48,15.06,50.53,1013.69,2062.98,3290.16,2982.97,3358.30,600.24,612.19,23.35,0000 0000 0000 0000 000000
2016-10-30 10:02:44,0.02,0.70,0.00,14.44,19.74,23.49,15.15,50.22,1013.72,2062.98,3289.93,2982.67,3358.00,599.95,611.98,23.40,0000 0000 0000 0000 000000
2016-10-30 10:07:45,0.03,0.70,0.00,14.43,19.74,23.48,15.04,49.79,1013.71,2062.99,3289.17,2982.05,3357.79,600.00,612.02,23.45,0000 0000 0000 0000 000000
2016-10-30 10:12:46,0.01,0.70,0.00,14.39,19.74,23.48,15.12,49.92,1013.69,2062.98,3288.97,2982.00,3357.09,600.06,612.11,23.50,0000 0000 0000 0000 000000
2016-10-30 10:17:48,0.02,0.70,0.00,14.37,19.75,23.48,15.06,49.97,1013.66,2062.98,3288.41,2981.76,3356.98,599.97,612.15,23.55,0000 0000 0000 0000 000000
2016-10-30 10:22:48,0.03,0.70,0.00,14.42,19.76,23.51,14.99,50.25,1013.67,2062.97,3288.01,2981.14,3356.41,599.88,611.93,23.60,0000 0000 0000 0000 000000
2016-10-30 10:27:50,0.03,0.71,0.00,14.42,19.77,23.47,15.00,50.11,1013.68,2062.97,3287.65,2980.68,3355.68,600.15,612.20,23.65,0000 0000 0000 0000 000000
2016-10-30 10:32:52,0.02,0.71,0.00,14.45,19.77,23.49,15.05,50.14,1013.70,2062.97,3287.04,2980.05,3355.04,600.10,612.12,23.70,0000 0000 0000 0000 000000
2016-10-30 10:37:53,0.00,0.71,0.00,14.44,19.77,23.48,15.04,50.20,1013.71,2062.98,3286.99,2980.00,3354.99,599.78,611.80,23.75,0000 0000 0000 0000 000000
2016-10-30 10:42:54,0.01,0.71,0.00,14.45,19.77,23.50,15.05,50.33,1013.69,2062.98,3286.61,2980.00,3354.87,600.07,612.05,23.80,0000 0000 0000 0000 000000
2016-10-30 10:47:55,0.02,0.71,0.00,14.45,19.77,23.50,15.02,50.34,1013.69,2062.95,3286.03,2979.87,3354.12,599.84,611.82,23.85,0000 0000 0000 0000 000000
2016-10-30 10:52:56,0.02,0.71,0.00,14.48,19.77,23.53,15.03,50.60,1013.63,2062.96,3285.95,2979.27,3354.00,599.47,611.55,23.90,0000 0000 0000 0000 000000
2016-10-30 10:57:58,0.02,0.71,0.00,14.48,19.77,23.51,15.11,50.62,1013.50,2062.96,3285.32,2979.00,3353.77,600.15,611.96,23.95,0000 0000 0000 0000 000000
2016-10-30 11:02:59,0.01,0.71,0.00,14.50,19.77,23.48,15.10,50.38,1013.28,2062.95,3285.00,2979.00,3353.08,600.00,611.62,24.00,0000 0000 0000 0000 000000
2016-10-30 11:08:00,0.02,0.71,0.00,14.50,19.77,23.47,15.03,50.67,1013.21,2062.94,3284.67,2978.80,3352.99,599.73,611.31,24.05,0000 0000 0000 0000 000000
2016-10-30 11:13:01,0.03,0.71,0.00,14.49,19.78,23.53,15.08,50.58,1013.20,2062.89,3284.04,2978.23,3352.58,600.09,611.52,24.10,0000 0000 0000 0000 000000
2016-10-30 11:18:02,0.00,0.71,0.00,14.45,19.78,23.52,15.05,50.46,1013.19,2062.84,3283.91,2978.01,3352.01,600.21,611.92,24.15,0000 0000 0000 0000 000000
2016-10-30 11:23:04,0.01,0.72,0.00,14.43,19.79,23.47,15.10,50.45,1013.21,2062.92,3283.36,2977.99,3351.98,600.31,612.06,24.20,0000 0000 0000 0000 000000
2016-10-30 11:28:05,0.01,0.72,0.00,14.45,19.79,23.50,15.01,50.35,1013.20,2062.84,3283.00,2977.92,3351.64,599.73,611.36,24.25,0000 0000 0000 0000 000000
2016-10-30 11:33:06,0.01,0.72,0.00,14.47,19.79,23.54,15.04,50.22,1013.20,2062.78,3282.98,2977.44,3351.06,600.06,611.56,24.30,0000 0000 0000 0000 000000
2016-10-30 11:38:08,0.01,0.72,0.00,14.47,19.79,23.53,15.13,50.52,1013.20,2062.76,3282.45,2977.07,3351.00,599.86,611.53,24.35,0000 0000 0000 0000 000000
2016-10-30 11:43:09,0.01,0.72,0.00,14.49,19.79,23.52,15.15,50.26,1013.20,2062.68,3282.02,2977.00,3350.95,600.44,612.06,24.40,0000 0000 0000 0000 000000
2016-10-30 11:48:10,-0.00,0.72,0.00,14.51,19.80,23.51,15.14,50.37,1013.15,2062.60,3281.85,2976.98,3350.20,600.49,612.09,24.45,0000 0000 0000 0000 000000
2016-10-30 11:53:12,-0.00,0.72,0.00,14.45,19.80,23.50,15.03,50.03,1013.15,2062.41,3281.31,2976.76,3350.00,600.24,611.87,24.50,0000 0000 0000 0000 000000
2016-10-30 11:58:13,0.04,0.72,0.00,14.51,19.81,23.53,15.08,50.20,1013.14,2062.47,3280.97,2976.11,3349.90,600.17,611.68,24.55,0000 0000 0000 0000 000000
2016-10-30 12:03:14,0.05,0.72,0.00,14.48,19.82,23.55,15.12,49.83,1013.15,2062.71,3280.25,2976.00,3349.15,600.46,612.06,24.60,0000 0000 0000 0000 000000
2016-10-30 12:08:15,0.04,0.72,0.00,14.47,19.82,23.56,15.09,49.64,1013.19,2062.70,3279.68,2975.60,3348.62,599.75,611.57,24.65,0000 0000 0000 0000 000000
2016-10-30 12:13:17,-0.02,0.72,0.00,14.44,19.82,23.56,15.18,50.10,1013.12,2062.44,3279.05,2974.99,3348.01,600.30,612.11,24.70,0000 0000 0000 0000 000000
2016-10-30 12:18:18,0.06,0.73,0.00,14.47,19.82,23.54,15.07,50.07,1012.97,2062.61,3278.89,2974.52,3347.55,599.78,611.23,24.75,0000 0000 0000 0000 000000
2016-10-30 12:23:19,0.02,0.73,0.00,14.50,19.82,23.53,15.19,50.42,1012.91,2062.70,3278.37,2974.07,3347.06,601.00,612.43,24.80,0000 0000 0000 0000 000000
2016-10-30 12:28:21,-0.02,0.73,0.00,14.51,19.83,23.55,14.88,50.06,1012.79,2062.44,3278.04,2974.00,3347.00,599.22,610.52,24.85,0000 0000 0000 0000 000000
2016-10-30 12:33:22,-0.01,0.73,0.00,14.51,19.84,23.55,14.98,50.33,1012.77,2062.21,3277.97,2973.99,3346.66,599.92,611.24,24.90,0000 0000 0000 0000 000000
2016-10-30 12:38:23,0.02,0.73,0.00,14.50,19.84,23.58,15.09,50.27,1012.76,2062.15,3277.67,2973.72,3346.06,600.34,611.74,24.95,0000 0000 0000 0000 000000
2016-10-30 12:43:25,0.01,0.73,0.00,14.54,19.84,23.57,14.96,50.41,1012.71,2062.10,3277.22,2973.21,3346.00,599.88,611.01,25.00,0000 0000 0000 0000 000000
2016-10-30 12:48:26,0.00,0.73,0.00,14.54,19.84,23.58,15.10,50.51,1012.71,2062.05,3276.99,2973.01,3345.90,600.29,611.33,25.05,0000 0000 0000 0000 000000
2016-10-30 12:53:27,0.01,0.73,0.00,14.51,19.84,23.60,15.02,50.26,1012.74,2062.03,3276.72,2972.99,3345.21,599.91,611.15,25.10,0000 0000 0000 0000 000000